Regional Weather Roundup
Issued by NWS Midland/Odessa, TX

Home | Current Version | Previous Version | Text Only | Print | Product List | Glossary On
Versions: 1 2 3 4 5 6 7 8 9 10 11 12 13 14 15 16 17 18 19 20 21 22 23 24 25 26 27 28 29 30 31 32 33 34 35 36 37 38 39 40 41 42 43 44 45 46 47 48 49 50
000
ASUS44 KMAF 232110
RWRMAF
MIDLAND AREA WEATHER ROUNDUP
NATIONAL WEATHER SERVICE MIDLAND TX
400 PM CDT WED APR 23 2014

...IN SOUTHWEST TEXAS AND SOUTHEAST NEW MEXICO...

CITY           SKY/WX    TMP DP  RH WIND       PRES   REMARKS
ALPINE         PTSUNNY   87  22   9 SW18G25   29.90F
ANDREWS        FAIR      87  37  17 S10       29.75F
ARTESIA        MOSUNNY   86  21   9 SW24G37   29.72F
BIG SPRING     PTSUNNY   94  46  19 SW20G28   29.73F
CARLSBAD       MOSUNNY   88  19   8 W18G35    29.72F
DRYDEN           N/A     98  55  23 SE22G30   29.70F
FORT STOCKTON  PTSUNNY   92  24   8 W17G24    29.74F
GUAD PASS      MOSUNNY   78  22  12 W37       29.88F
HOBBS          SUNNY     84  25  11 S21       29.76F
MARFA          PTSUNNY   82  27  13 SW15G30   29.90F
MIDLAND AIRPK  CLOUDY    89  41  18 SW14      29.73F
MIDLAND INTL   CLOUDY    90  47  22 SW13G18   29.72F
ODESSA           N/A    N/A N/A N/A MISG      29.73F
PECOS          MOSUNNY   89  38  16 SW15G26   29.72F
PRESIDIO       FAIR      93  17   6 SW15      29.74F
SEMINOLE       CLOUDY    87  33  15 SW17G28   29.75F
SNYDER         MOSUNNY   90  53  28 S16G25    29.70F
WINK           PTSUNNY   92  33  12 S10G23    29.71F
$$
...OTHER STATIONS IN TEXAS...

CITY           SKY/WX    TMP DP  RH WIND       PRES   REMARKS
ABILENE        MOSUNNY   88  53  30 S15G33    29.71F
AMARILLO       PTSUNNY   88  41  19 S24G33    29.66F
AUSTIN         PTSUNNY   85  65  51 S15G23    29.81F
BROWNSVILLE    SUNNY     84  65  52 SE21G28   29.83F
CORPUS CHRISTI MOSUNNY   85  64  49 SE18G28   29.83F
DALLAS FTW     PTSUNNY   86  60  41 S21G31    29.78F
DEL RIO        MOSUNNY   94  58  29 SE21G29   29.69F
EL PASO        MOSUNNY   85  18   8 SW29G35   29.80F
HOUSTON INT    MOSUNNY   83  63  50 SE16      29.86F
LUBBOCK        CLOUDY    87  42  20 S18G31    29.70F
SAN ANGELO     MOSUNNY   95  49  20 S20G28    29.71F
SAN ANTONIO    MOSUNNY   89  62  40 SE17G26   29.79F
WACO           SUNNY     86  59  39 S13G23    29.80F
WICHITA FALLS  NOT AVBL
$$
...OTHER LOCATIONS IN NEW MEXICO...

CITY           SKY/WX    TMP DP  RH WIND       PRES   REMARKS
ALAMAGORDO     SUNNY     82  16   8 SW18G24   29.80F
ALBUQUERQUE    PTSUNNY   75  14  10 W21G26    29.77F
CANNON AFB     MOSUNNY   85  12   6 SW29G38   29.70F
CLOVIS         PTSUNNY   84  25  11 SW30G36   29.72F
HOLLOMAN AFB   SUNNY     83  13   7 SW17G31   29.77F
ROSWELL        SUNNY     89  10   5 SW20G28   29.67F
RUIDOSO        SUNNY     68  16  13 SW23G38   29.90S
SANTA FE       PTSUNNY   70  17  13 W22G32    29.80F
TRUTH OR CONSE SUNNY     81  11   7 SW16G29   29.78F
TUCUMCARI      SUNNY     87  20   8 SW22G36   29.64F
$$



USA.gov is the U.S. government's official web portal to all federal, state and local government web resources and services.